Location: Newark
(5.8900°S, 42.6378°W)
Time: 23:58:58
(UTC+00:00)

Hubble Space Telescope - Visible Passes

Search period start: 23 August 2019 00:00
Search period end: 02 September 2019 00:00
Orbit: 536 x 540 km, 28.5° (Epoch: 23 August)

Date Brightness Start Highest point End Pass type
(mag) Time Alt. Az. Time Alt. Az. Time Alt. Az.
28 Aug 3.4 08:23:38 10° S 08:24:53 11° SSE 08:26:08 10° SE visible
28 Aug 2.9 22:00:40 10° N 22:02:42 13° NNE 22:02:42 13° NNE visible
29 Aug 3.2 08:12:09 10° S 08:14:28 14° SSE 08:16:46 10° ESE visible
29 Aug 2.5 21:49:17 10° NNW 21:52:11 18° NNE 21:53:02 17° NE visible
30 Aug 3.0 08:01:02 10° SSW 08:04:01 19° SSE 08:06:58 10° ESE visible
30 Aug 2.1 21:38:13 10° NNW 21:41:39 25° NNE 21:43:26 19° ENE visible
31 Aug 2.6 07:50:32 12° SSW 07:53:32 24° SSE 07:56:57 10° E visible
31 Aug 1.6 21:27:19 10° NW 21:31:06 36° NNE 21:33:51 16° E visible
31 Aug 3.8 23:08:30 10° W 23:09:13 14° W 23:09:13 14° W visible
01 Sep 2.1 07:40:53 20° SSW 07:43:02 33° SSE 07:46:47 10° E visible
01 Sep 1.1 21:16:34 10° NW 21:20:34 51° NNE 21:24:18 12° ESE visible
01 Sep 3.4 22:58:19 10° W 22:59:40 17° WSW 22:59:40 17° WSW visible
